EW8142 Weather Reports


time (UTC)temp
F
wind
direction
speed
knots
gust
knots
rain 1hr
in
rain 24hr
in
rain mn
in
humidity
%
barometer
mb
20210723164512 74 0.0 0.0 0.00 0.00 0.00 61 1015.5
20210723163038 74 0.0 0.0 0.00 0.00 0.00 67 1015.5
20210723161503 73 0.0 0.0 0.00 0.00 0.00 64 1015.7
20210723160146 72 360 0.0 0.0 0.00 0.00 0.00 70 1015.7
20210723154725 72 0.0 0.0 0.00 0.00 0.00 67 1015.9
20210723153143 73 360 0.0 0.0 0.00 0.00 0.00 72 1016.0
20210723151615 71 0.0 0.0 0.00 0.00 0.00 66 1016.0
20210723150121 71 0.0 0.0 0.00 0.00 0.00 71 1016.1
20210723144605 71 0.0 0.0 0.00 0.00 0.00 73 1016.1
20210723143130 71 0.0 0.0 0.00 0.00 0.00 74 1016.1
20210723141602 70 360 0.0 0.0 0.00 0.00 0.00 74 1016.2
20210723140032 0 0.0 0.0 0.00 0.00 0.00
20210723114610 61 360 0.0 0.0 0.00 0.00 0.00 86 1015.9
20210723113111 60 360 0.0 0.0 0.00 0.00 0.00 89 1015.7
20210723111618 58 0.0 0.0 0.00 0.00 0.00 92 1015.8
20210723110045 57 360 0.0 0.0 0.00 0.00 0.00 95 1015.7
20210723104555 56 0.0 0.0 0.00 0.00 0.00 95 1015.5
20210723103108 55 0.0 0.0 0.00 0.00 0.00 96 1015.5
20210723101636 55 0.0 0.0 0.00 0.00 0.00 96 1015.4
20210723100056 54 0.0 0.0 0.00 0.00 0.00 95 1015.1
20210723094525 54 0.0 0.0 0.00 0.00 0.00 95 1015.1
20210723093022 54 0.0 0.0 0.00 0.00 0.00 95 1015.0
20210723091521 53 0.0 0.0 0.00 0.00 0.00 95 1014.7
20210723090022 54 0.0 0.0 0.00 0.00 0.00 95 1014.7
20210723084526 54 0.0 0.0 0.00 0.00 0.00 95 1014.7
20210723083039 54 0.0 0.0 0.00 0.00 0.00 95 1014.6
20210723081512 54 0.0 0.0 0.00 0.00 0.00 95 1014.6
20210723080107 55 0.0 0.0 0.00 0.00 0.00 95 1014.4
20210723074508 55 0.0 0.0 0.00 0.00 0.00 95 1014.3
20210723073005 55 0.0 0.0 0.00 0.00 0.00 95 1014.4
20210723071511 55 0.0 0.0 0.00 0.00 0.00 95 1014.4
20210723070006 55 360 0.0 0.0 0.00 0.00 0.00 95 1014.6
20210723064604 55 360 0.0 0.0 0.00 0.00 0.00 95 1014.5
20210723063113 55 0.0 0.0 0.00 0.01 0.00 95 1014.6
20210723061543 55 0.0 0.0 0.00 0.01 0.00 95 1014.6
20210723060039 56 360 0.0 0.0 0.00 0.01 0.00 95 1014.7
20210723054625 56 0.0 0.0 0.00 0.01 0.00 95 1014.7
20210723053116 56 360 0.0 0.0 0.00 0.01 0.00 94 1014.8
20210723051553 56 0.0 0.0 0.00 0.01 0.00 95 1014.9
20210723050038 56 360 0.0 0.0 0.00 0.01 0.00 94 1014.9
20210723044549 56 360 0.0 0.0 0.00 0.01 0.00 94 1014.9
20210723043047 56 360 0.0 0.0 0.00 0.01 0.00 94 1014.9
20210723041614 56 360 0.0 0.0 0.00 0.01 0.00 94 1015.0
20210723040019 57 360 0.0 0.0 0.00 0.01 0.00 94 1015.1
20210723034541 57 360 0.0 0.0 0.00 0.01 0.00 93 1015.1
20210723033015 57 360 0.0 0.0 0.00 0.02 0.00 93 1015.1
20210723031524 58 360 0.0 0.0 0.00 0.02 0.00 93 1015.0
20210723030012 58 360 0.0 0.0 0.00 0.02 0.00 92 1014.7
20210723024607 58 0.0 0.0 0.00 0.02 0.00 93 1014.8
20210723023005 57 0.0 0.0 0.00 0.02 0.00 92 1014.9
20210723021951 58 0.0 0.0 0.00 0.02 0.00 92 1015.0
20210723020148 59 360 0.0 0.0 0.00 0.02 0.00 91 1014.9
20210723014705 60 360 0.0 0.0 0.00 0.02 0.00 90 1015.1
20210723013240 61 0.0 0.0 0.00 0.02 0.00 86 1015.1
20210723011621 62 360 0.0 0.0 0.00 0.02 0.00 86 1014.9
20210723010131 61 0.0 0.0 0.00 0.02 0.00 88 1014.4
20210723004629 62 0.0 0.0 0.00 0.02 0.00 87 1014.1
20210723003157 61 0.0 0.0 0.00 0.02 0.00 86 1013.9
20210723001615 61 0.0 0.0 0.00 0.02 0.00 85 1013.8
20210723000208 62 0.0 0.0 0.00 0.02 0.00 84 1013.6
20210722234616 62 0.0 0.0 0.00 0.02 0.00 82 1013.7
20210722233047 64 0.0 0.0 0.00 0.02 0.00 80 1013.5
20210722231540 65 360 0.0 0.0 0.00 0.02 0.00 79 1013.5
20210722230029 66 0.0 0.0 0.00 0.02 0.00 76 1013.4
20210722224548 67 0.0 0.0 0.00 0.02 0.00 76 1013.2
20210722223027 67 360 0.0 0.0 0.00 0.02 0.00 74 1013.1
20210722221526 68 0.0 0.0 0.00 0.02 0.00 71 1012.9
20210722220011 69 0.0 0.0 0.00 0.02 0.00 71 1012.9
20210722214509 73 0.0 0.0 0.00 0.02 0.00 63 1012.6
20210722213036 74 0.0 0.0 0.00 0.02 0.00 58 1012.5
20210722211518 74 0.0 0.0 0.00 0.02 0.00 57 1012.6
20210722210003 74 0.0 0.0 0.00 0.02 0.00 58 1012.6
20210722204506 75 0.0 0.0 0.00 0.02 0.00 60 1012.5
20210722203254 75 0.0 0.0 0.00 0.02 0.00 59 1012.6
20210722201631 74 0.0 0.0 0.00 0.02 0.00 56 1012.4
20210722200158 75 0.0 0.0 0.00 0.02 0.00 55 1012.3
20210722194724 73 0.0 0.0 0.00 0.02 0.00 63 1012.1
20210722193218 74 0.0 0.0 0.00 0.02 0.00 59 1012.2
20210722191656 75 0.0 0.0 0.00 0.02 0.00 60 1012.3
20210722190146 76 0.0 0.0 0.00 0.02 0.00 63 1012.3
20210722184627 74 0.0 0.0 0.00 0.02 0.00 58 1012.4
20210722183208 73 0.0 0.0 0.00 0.02 0.00 62 1012.6
20210722181620 74 0.0 0.0 0.00 0.02 0.00 62 1012.6
20210722180124 73 0.0 0.0 0.00 0.02 0.00 59 1012.4
20210722174539 74 360 0.0 0.0 0.00 0.02 0.00 68 1012.4
20210722173045 73 360 0.0 0.0 0.00 0.02 0.02 66 1012.3
20210722171611 72 0.0 0.0 0.00 0.02 0.02 66 1012.3
20210722170112 71 0.0 0.0 0.00 0.02 0.02 67 1012.3